Location: Bernadets
(43.3537°N, 0.3167°E)
Time: 08:03:08
(UTC+00:00)

SL-8 R/B - Pass Details

Date: 24 October 2021
Orbit: 656 x 667 km, 48.4° (Epoch: 02 December)

Event Time Altitude Azimuth Distance (km) Brightness Sun altitude
Rises 17:44:41 0° 263° (W) 2,978 9.6 -8.5°
Reaches altitude 10° 17:47:04 10° 268° (W) 2,069 7.9 -9.0°
Maximum altitude 17:51:45 55° 346° (NNW) 798 4.2 -9.8°
Enters shadow 17:56:01 13° 63° (ENE) 1,911 5.5 -10.6°
